Regional Weather Roundup
Issued by NWS

Home | Current Version | Previous Version | Graphics & Text | Print | Product List | Glossary On
Versions: 1 2 3 4 5 6 7 8 9 10 11 12 13 14 15 16 17 18 19 20 21 22 23 24 25 26 27 28 29 30 31 32 33 34 35 36 37 38 39 40 41 42 43 44 45 46 47 48 49 50
000
ASUS43 KOAX 271302
RWRNE

WEATHER ROUNDUP FOR NEBRASKA
NATIONAL WEATHER SERVICE OMAHA NE
800 AM CDT FRI MAR 27 2015

NOTES: SATELLITE DATA IS BEING USED TO AUGMENT CLOUD COVER ABOVE
       12000 FEET.
       "FAIR" INDICATES FEW OR NO CLOUDS BELOW 12,000 FEET WITH NO
       SIGNIFICANT WEATHER AND/OR OBSTRUCTIONS TO VISIBILITY.

  * THESE STATIONS DO NOT REPORT WEATHER SUCH AS RAIN...SNOW OR FOG.

NEZ001>004-019>022-054>056-271400-
NEBRASKA PANHANDLE

CITY           SKY/WX    TMP DP  RH WIND       PRES   REMARKS
SCOTTSBLUFF    CLOUDY    38  36  92 N5        30.14S WCI  34
ALLIANCE       MIX PCPN  36  33  89 SW8       30.11F WCI  30
CHADRON        CLOUDY    43  38  82 W3        30.09R
SIDNEY         CLOUDY    36  32  85 SW10      30.16S WCI  28
$$

NEZ057>060-069>072-079>082-271400-
SOUTHWEST NEBRASKA

CITY           SKY/WX    TMP DP  RH WIND       PRES   REMARKS
NORTH PLATTE   CLOUDY    31  28  89 S6        30.21S WCI  25
IMPERIAL         N/A     33  30  88 S8        30.21R WCI  26
MCCOOK         CLOUDY    32  30  92 CALM      30.25R
$$

NEZ005>010-023>029-035>040-094-271400-
NORTH CENTRAL NEBRASKA

CITY           SKY/WX    TMP DP  RH WIND       PRES   REMARKS
VALENTINE      LGT SNOW  33  28  81 S8        30.17F WCI  26
BROKEN BOW     CLOUDY    32  26  78 SE3       30.21F
ORD            MOCLDY    24  20  84 SE5       30.25S WCI  18
$$

NEZ041-046>049-061>064-073>077-083>087-271400-
SOUTH CENTRAL NEBRASKA

CITY           SKY/WX    TMP DP  RH WIND       PRES   REMARKS
GRAND ISLAND   PTCLDY    20  18  92 NE5       30.28S WCI  13
HASTINGS       PTCLDY    25  21  85 CALM      30.27R
KEARNEY *      CLOUDY    28  23  80 CALM      30.26S
$$

NEZ011>018-030>034-042>045-271400-
NORTHEAST NEBRASKA

CITY           SKY/WX    TMP DP  RH WIND       PRES   REMARKS
NORFOLK        CLEAR     20  17  88 W3        30.28S
COLUMBUS *     CLEAR     19  10  68 W3        30.31S
TEKAMAH        PTCLDY    20  14  77 NW15G24   30.31R WCI   6
$$

NEZ050>053-065>068-078-088>093-271400-
SOUTHEAST NEBRASKA

CITY           SKY/WX    TMP DP  RH WIND       PRES   REMARKS
LINCOLN        PTCLDY    22  17  81 N5        30.32R WCI  16
OMAHA EPPLEY   PTCLDY    23  19  85 N7        30.31R WCI  15
FALLS CITY     CLEAR     27  19  72 N9        30.29R WCI  18
$$

NEZ044-045-051>053-067-271400-
OMAHA AREA

CITY           SKY/WX    TMP DP  RH WIND       PRES   REMARKS
OMAHA EPPLEY   PTCLDY    23  19  85 N7        30.31R WCI  15
OFFUTT AFB     CLEAR     23  17  78 NW7       30.30R WCI  14
$$


USA.gov is the U.S. government's official web portal to all federal, state and local government web resources and services.